Regional Weather Roundup
Issued by NWS

Home | Current Version | Previous Version | Graphics & Text | Print | Product List | Glossary On
Versions: 1 2 3 4 5 6 7 8 9 10 11 12 13 14 15 16 17 18 19 20 21 22 23 24 25 26 27 28 29 30 31 32 33 34 35 36 37 38 39 40 41 42 43 44 45 46 47 48 49 50
000
ASUS45 KSLC 270210
RWRUT

UTAH REGIONAL WEATHER ROUNDUP
NATIONAL WEATHER SERVICE SALT LAKE CITY UT
800 PM MDT SAT MAY 26 2018

UTZ001>011-023>025-270300-

NORTHERN UTAH

CITY           SKY/WX    TMP DP  RH WIND       PRES   REMARKS
BRIGHAM CITY   CLOUDY    75  22  13 SE5       29.78R
HILL AFB       NOT AVBL
LOGAN          CLOUDY    69  38  32 W7        29.78R
OGDEN          MOCLDY    75  22  13 SE8       29.78S
SALT LAKE CITY NOT AVBL
TOOELE VALLEY  CLOUDY    72  50  46 N15       29.76S
WENDOVER       PTCLDY    65  38  36 NW29G41   29.80R
HEBER CITY       N/A     64  28  25 N5        29.81S
WEST JORDAN    CLOUDY    73  33  23 N8        29.78S

$$

UTZ011>015-024>027-270300-

CENTRAL/NORTHEAST UTAH

CITY           SKY/WX    TMP DP  RH WIND       PRES   REMARKS
PROVO AIRPORT  CLOUDY    74  35  24 W9        29.77R
MOAB/CANYONLAN PTCLDY    84  12   6 S17       29.65S
DELTA          CLOUDY    72  16  12 W9G26     29.81R
PRICE          PTCLDY    77   5   6 SW15G26   29.77S
ROOSEVELT      CLOUDY    77  19  11 SW12      29.74S
VERNAL         CLOUDY    78  19  11 W7        29.74R

$$

UTZ013>016-019>022-027-270300-

SOUTHERN UTAH

CITY           SKY/WX    TMP DP  RH WIND       PRES   REMARKS
BRYCE CANYON   MOCLDY    60  16  18 W12       29.94R
CEDAR CITY     MOCLDY    62  26  25 W12       29.86R
MILFORD        MOCLDY    71  15  11 S18       29.80R
ST GEORGE      MOCLDY    79  23  12 SW18      29.75R
HANKSVILLE     CLEAR     82  18   9 W14G21    29.68S
BLANDING         N/A     76  13   9 S14G26    29.88R

$$

REGIONAL REPORTS     COLORADO/ARIZONA

CITY           SKY/WX    TMP DP  RH WIND       PRES   REMARKS
CRAIG, CO      MOCLDY    67  30  25 S12       29.82R
GRAND JUNCTION MOCLDY    83  25  12 SE28G44   29.71R
RIFLE, CO      MOCLDY    81  19  10 S6        29.77S
MONTROSE, CO   MOCLDY    80  17   9 S14       29.82R
CORTEZ, CO     CLOUDY    80  23  12 SE10G29   29.82F
COLORADO CITY    N/A     70  25  18 W12       29.88R
PAGE, AZ       PTCLDY    80   9   6 SW10G22   29.73R
GRAND CANYON   CLEAR     61  20  20 SW21G26   29.96R
KINGMAN, AZ      N/A     73  30  20 MISG      29.85S
FLAGSTAFF, AZ  CLEAR     58  20  22 SW20G38   29.99R

$$

REGIONAL REPORTS    NEVADA/IDAHO/WYOMING

CITY           SKY/WX    TMP DP  RH WIND       PRES   REMARKS
LAS VEGAS, NV  PTCLDY    80  33  18 S10       29.73S
ELY, NY        MOCLDY    58  25  28 SW10      29.92R
ELKO, NV       CLOUDY    51  42  71 W12       30.00S
POCATELLO, ID  PTCLDY    66  45  46 SW21      29.88R
BURLEY, ID     PTCLDY    61  45  55 W14G23    29.89R
FORT BRIDGER,    N/A     72  18  13 S12       29.90R
EVANSTON, WY   MOCLDY    62  31  31 W12       29.92R
ROCK SPRINGS,  PTCLDY    71  16  12 W10       29.85R

$$



USA.gov is the U.S. government's official web portal to all federal, state and local government web resources and services.